Location: Unspecified
(0.0000°N, 0.0000°E)
Time: 05:55:19
(UTC+00:00)

S-56A Canister/Altair - All Passes

Search period start: 02 May 2016 00:00
Search period end: 12 May 2016 00:00
Orbit: 639 x 2496 km, 38.9° (Epoch: 25 April)

Date Brightness Start Highest point End Pass type
(mag) Time Alt. Az. Time Alt. Az. Time Alt. Az.
02 May - 00:55:44 10° W 01:07:14 26° SW 01:17:50 10° SSE night (unlit)
02 May - 09:37:54 10° SSW 09:42:48 38° SE 09:46:59 10° ENE daylight
02 May - 11:43:33 10° W 11:46:26 16° NW 11:49:22 10° N daylight
02 May - 20:09:10 10° NNW 20:19:51 35° NE 20:32:43 10° ESE visible
02 May - 22:12:43 10° NW 22:26:30 84° SW 22:41:37 10° SE visible
03 May - 00:21:41 10° W 00:33:55 30° SW 00:45:32 10° SSE night (unlit)
03 May - 09:05:36 10° SSW 09:10:33 31° SE 09:14:37 10° E daylight
03 May - 11:10:37 10° W 11:14:11 21° NW 11:17:39 10° N daylight
03 May - 19:37:06 10° NNW 19:46:47 30° NE 19:58:35 10° E visible
03 May - 21:39:57 10° NW 21:53:12 88° NE 22:08:30 10° SE visible
03 May - 23:47:53 10° W 00:00:34 35° SW 00:13:05 10° SSE visible
04 May - 08:33:16 10° SSW 08:38:13 26° SE 08:42:12 10° E daylight
04 May - 10:37:47 10° WSW 10:41:59 28° NW 10:45:51 10° NNE daylight
04 May - 19:05:14 10° N 19:13:46 25° NE 19:24:13 10° E visible
04 May - 21:07:20 10° NW 21:19:59 79° NE 21:35:16 10° SE visible
04 May - 23:14:19 10° WNW 23:27:12 39° SW 23:40:29 10° SSE visible
05 May - 01:32:21 10° SW 01:36:12 11° SSW 01:39:55 10° SSW night (unlit)
05 May - 08:00:53 10° SSW 08:05:48 22° SSE 08:09:44 10° E daylight
05 May - 10:05:00 10° WSW 10:09:50 38° NW 10:14:00 10° NNE daylight
05 May - 18:33:35 10° N 18:40:48 20° NE 18:49:33 10° E visible
05 May - 20:34:51 10° NW 20:46:48 71° NE 21:01:53 10° SE visible
05 May - 22:40:59 10° WNW 22:53:51 44° SW 23:07:45 10° SSE visible
06 May - 00:56:12 10° SW 01:02:42 14° SSW 01:08:57 10° S night (unlit)
06 May - 07:28:27 10° SSW 07:33:19 19° SSE 07:37:13 10° ESE daylight
06 May - 09:32:13 10° WSW 09:37:41 52° NW 09:42:05 10° NE daylight
06 May - 18:02:19 10° N 18:07:54 16° NE 18:14:28 10° ENE daylight
06 May - 20:02:29 10° NW 20:13:42 62° NE 20:28:21 10° ESE visible
06 May - 22:07:50 10° WNW 22:20:30 50° SW 22:34:54 10° SSE visible
07 May - 00:21:04 10° WSW 00:29:11 16° SSW 00:37:09 10° S night (unlit)
07 May - 06:55:59 10° S 07:00:45 17° SSE 07:04:36 10° ESE daylight
07 May - 08:59:26 10° SW 09:05:31 70° NW 09:10:09 10° NE daylight
07 May - 17:31:54 10° NNE 17:35:02 12° NE 17:38:29 10° ENE daylight
07 May - 19:30:14 10° NNW 19:40:41 54° NE 19:54:42 10° ESE visible
07 May - 21:34:51 10° WNW 21:47:11 55° SW 22:01:55 10° SE visible
07 May - 23:46:27 10° WSW 23:55:41 19° SSW 00:04:58 10° S visible
08 May - 06:23:28 10° S 06:28:06 16° SSE 06:31:54 10° ESE daylight
08 May - 08:26:38 10° SW 08:33:19 90° ESE 08:38:09 10° NE daylight
08 May - 18:58:07 10° NNW 19:07:46 46° NE 19:20:55 10° ESE visible
08 May - 21:02:03 10° WNW 21:13:55 62° SW 21:28:51 10° SE visible
08 May - 23:12:15 10° WSW 23:22:12 22° SSW 23:32:33 10° SSE visible
09 May - 05:50:55 10° S 05:55:22 15° SSE 05:59:06 10° ESE daylight
09 May - 07:53:48 10° SW 08:01:03 72° SE 08:06:06 10° NE daylight
09 May - 10:03:16 10° WNW 10:04:28 11° NW 10:05:37 10° NNW daylight
09 May - 18:26:08 10° NNW 18:34:56 39° NE 18:47:00 10° ESE visible
09 May - 20:29:22 10° WNW 20:40:43 69° SW 20:55:39 10° SE visible
09 May - 22:38:22 10° W 22:48:44 24° SSW 22:59:56 10° SSE visible
10 May - 05:18:20 10° S 05:22:33 13° SSE 05:26:08 10° SE visible
10 May - 07:20:56 10° SW 07:28:42 59° SE 07:34:00 10° ENE daylight
10 May - 09:28:56 10° W 09:32:12 15° NW 09:35:05 10° N daylight
10 May - 17:54:17 10° NNW 18:02:11 32° NE 18:12:55 10° ESE daylight
10 May - 19:56:50 10° NW 20:07:35 77° SW 20:22:21 10° SE visible
10 May - 22:04:46 10° W 22:15:18 27° SSW 22:27:12 10° SSE visible
11 May - 04:45:44 10° S 04:49:37 13° SSE 04:53:01 10° SE visible
11 May - 06:48:02 10° SW 06:56:16 50° SE 07:01:51 10° ENE daylight
11 May - 08:55:19 10° W 08:59:59 21° NW 09:03:48 10° N daylight
11 May - 17:22:36 10° N 17:29:31 26° NE 17:38:41 10° E daylight
11 May - 19:24:26 10° NW 19:34:33 86° SW 19:48:59 10° SE visible
11 May - 21:31:25 10° W 21:41:55 31° SW 21:54:19 10° SSE visible
